sat.trackr.live / text

‹ back to catalog

STARLINK-5282

NORAD 54169 · 2022-141N

PAYLOAD ACTIVE UNKNOWN

§ Identity

Operator
Country
US
Launch date
2022-10-28
Launch site
AFWTR
Launch vehicle
Mass (kg)
RCS (m²)

Purposes: comms

External: N2YO · Heavens-Above · Gunter

§ Orbital elements

Epoch: 2026-05-25T01:28:22.317024Z

Period
95.44 min
Inclination
53.2145°
Eccentricity
0.0001515
Mean motion
15.08846336 rev/d
Perigee alt
538.7 km
Apogee alt
540.8 km
Semi-major
6,917.9 km
B*
-5.6975e-5
RAAN
20.8224°
Arg perigee
88.1413°
Mean anomaly
271.9753°
Rev number
19,739

§ Raw data

STARLINK-52821 54169U 22141N   26145.06136941 -.00001195  00000+0 -56975-4 0  99962 54169  53.2145  20.8224 0001515  88.1413 271.9753 15.08846336197399

JSON: /api/v1/satellites/54169 · /tle

For live sub-satellite position, see the globe view (requires WebGL).

§ Visibility from observer

Set your observer location to see the next 7 days of passes ≥ 10°. The values pass through the URL so the page stays shareable.

No JS? Fill the form by hand. The geolocation button needs JavaScript.